www.pogodaiklimat.ru
Время
(UTC), дата
21 20.02
00 21.02
03 21.02
06 21.02
09 21.02
12 21.02
15 21.02
18 21.02
21 21.02
00 22.02
03 22.02
06 22.02
09 22.02
12 22.02
15 22.02
18 22.02
21 22.02
00 23.02
03 23.02
06 23.02
09 23.02
12 23.02
15 23.02
18 23.02
21 23.02
00 24.02
03 24.02
06 24.02
09 24.02
12 24.02
15 24.02
18 24.02
21 24.02
00 25.02
03 25.02
06 25.02
09 25.02
12 25.02
15 25.02
18 25.02
21 25.02
00 26.02
03 26.02
06 26.02
09 26.02
12 26.02
15 26.02
18 26.02
21 26.02
00 27.02
03 27.02
06 27.02
09 27.02
12 27.02
15 27.02
18 27.02
Ветер
(напр.,м/с)
Видим. Явления Облачность Т
(С)
Тd
(С)
f
(%)
Тe
(С)
Тes
(С)
Комфортность P
(гПа)
Po
(гПа)
Тmin
(С)
Tmax
(С)
R
(мм)
R24
(мм)
S
(см)
Ю 7-12
{12}
20 км позёмок 9/0
[Ac trans]
-3.9 -8.8 69 -12 -12 тепло 1029.6 1001.4
Ю 5
{12}
20 км {метель} ясно -4.1 -9.5 66 -11 -11 тепло 1028.7 1000.5 -4.6 11
Ю 2 20 км 8/0
[Ci sp]
-8.4 -11.2 80 -13 -12 тепло 1028.6 1000.1 -9.1
ЮЗ 4 20 км 10/0
[Ci sp]
-4.0 -8.5 71 -10 -7 тепло 1026.0 997.9
ЮЗ 5 20 км 10/0
[Cs]
-1.8 -7.1 67 -8 -7 тепло 1024.1 996.3
Ю 2 20 км 10/0
[Ac lent Ci sp]
-4.4 -8.3 74 -8 -8 тепло 1023.1 995.1 -1.4
Ю 2 20 км 10/0
[Ci sp]
-5.7 -8.7 79 -10 -10 тепло 1023.5 995.1
Ю 2 20 км 10/0
[Ci fib]
-6.1 -10.1 73 -10 -10 тепло 1021.6 993.1
ЮВ 2 20 км 10/10 600 м
[Sc]
-7.7 -10.3 82 -12 -12 тепло 1020.4 992.1
Ю 1 20 км 10/10 600 м
[Sc]
-6.1 -9.2 79 -8 -8 тепло 1020.7 992.5 -8.0 11
СВ 2 20 км {ливн. осадки} 10/10 1000 м
[Sc]
-4.1 -5.6 89 -8 -8 тепло 1020.2 992.2
СВ 2 20 км {ливн. осадки} 10/10 1000 м
[Sc]
-2.3 -4.8 83 -6 -6 тепло 1020.3 992.5
СВ 2 2000 м слаб. ливневой снег 10/10 300 м
[Cb cap]
-1.5 -2.6 92 -5 -5 тепло 1018.8 991.1
СВ 3 2000 м слаб. ливневой снег 10/10 300 м
[Cb cap]
-2.5 -3.8 91 -8 -8 тепло 1018.9 991.1 -1.1 5
СВ 4 500 м ливневой снег 10/10 300 м
[Cb cap]
-3.1 -4.5 90 -9 -9 тепло 1018.6 990.7
С 6 4000 м слаб. ливневой снег {метель} 10/10 300 м
[Cb cap]
-4.1 -5.6 89 -12 -12 тепло 1019.4 991.4
С 6 4000 м слаб. ливневой снег {метель} 10/10 600 м
[Cb cap]
-5.0 -6.7 88 -13 -13 тепло 1020.6 992.5
С 6 10 км слаб. ливневой снег {метель} 10/10 600 м
[Cb cap]
-5.5 -7.7 84 -13 -13 тепло 1022.7 994.6 -5.6 8 19
СЗ 5 20 км позёмок {ливн. осадки} 10/10 600 м
[Sc]
-6.5 -8.9 83 -14 -14 тепло 1025.2 996.9 -6.5
С 6 20 км позёмок {ливн. осадки} 10/0
[St Ac und Ci sp]
-3.6 -7.2 76 -11 -10 тепло 1026.9 998.9
СЗ 6 20 км позёмок 10/3 1000 м
[Sc Ac und]
-2.0 -7.0 69 -9 -9 тепло 1027.8 999.9
СЗ 4 20 км слаб. снег {метель} 10/10 600 м
[Sc]
-3.3 -6.1 81 -9 -9 тепло 1029.0 1000.9 -1.0 0.0
СЗ 3 20 км слаб. снег {метель} 10/10 600 м
[Sc]
-5.7 -7.9 84 -11 -11 тепло 1031.0 1002.6
ЮЗ 2 20 км {снег, метель} 10/10 600 м
[Sc]
-8.7 -10.6 86 -13 -13 тепло 1030.2 1001.5
ЮЗ 1 10 км слаб. снег 10/10 600 м
[Sc]
-7.5 -9.2 88 -10 -10 тепло 1030.8 1002.2
Ю 2 10 км слаб. снег 10/10 600 м
[Sc]
-7.7 -9.1 90 -12 -12 тепло 1030.8 1002.2 -8.7 0.3 20
Ю 2 10 км слаб. снег 10/10 600 м
[Sc]
-7.8 -10.0 84 -12 -12 тепло 1031.2 1002.5
штиль 0 2000 м слаб. ливневой снег 10/10 300 м
[Cb cap]
-4.2 -7.6 77 -5 -5 тепло 1030.5 1002.3
С 1 20 км слаб. снег 10/10 600 м
[Sc]
-2.5 -6.9 72 -4 -4 тепло 1029.1 1001.1
С 2 20 км {ливн. осадки, снег} 10/10 1000 м
[Sc]
-5.2 -7.7 83 -9 -9 тепло 1029.0 1000.6 -2.4 0.0
штиль 0 4000 м слаб. снег 10/10 600 м
[Sc]
-5.9 -7.8 86 -7 -7 тепло 1029.0 1000.5
СЗ 1 20 км в посл. час снег 10/10 600 м
[Sc]
-8.2 -9.6 90 -11 -11 тепло 1028.3 999.8
СВ 1 20 км слаб. снег 10/10 600 м
[Sc]
-6.9 -8.6 88 -9 -9 тепло 1028.1 999.7
СВ 1 20 км слаб. снег 10/10 600 м
[Sc]
-6.5 -8.5 86 -9 -9 тепло 1028.4 1000.1 -8.5 0.6 21
З 1 10 км слаб. снег 10/10 300 м
[Sc]
-7.8 -9.6 87 -10 -10 тепло 1029.8 1001.1
Ю 2 10 км снежные зёрна 10/10 300 м
[Sc]
-6.8 -9.7 80 -11 -11 тепло 1030.1 1001.5
штиль 0 10 км {снег} 10/10 600 м
[Sc]
-5.5 -8.9 77 -6 -6 тепло 1030.7 1002.3
В 1 20 км {снег} 10/10 600 м
[Sc]
-7.3 -11.2 74 -10 -10 по сезону 1031.2 1002.6 -5.1 0.0
В 2 4000 м дымка ясно -12.4 -13.7 90 -17 -17 по сезону 1032.4 1003.3
С 1 500 м переохл. туман ясно -18.9 -20.8 85 -22 -22 по сезону 1033.4 1003.5
С 1 500 м переохл. туман ясно -19.4 -21.3 85 -22 -22 по сезону 1032.1 1002.2
СВ 2 4000 м в посл. час туман ясно -19.9 -21.8 85 -26 -26 прохладно 1032.2 1002.1 -20.3 20
СВ 4 10 км 10/0
[Cc]
-19.2 -21.8 80 -28 -27 холодно 1031.0 1001.1
СВ 3 20 км 10/0
[Cs]
-12.3 -15.0 80 -18 -15 по сезону 1028.1 999.1
СВ 3 20 км 10/0
[Ac cast Cc]
-7.8 -12.8 67 -13 -12 по сезону 1025.1 996.6
СВ 4 20 км 10/0
[Ac cast Cc]
-9.2 -13.2 73 -16 -16 по сезону 1022.7 994.2 -6.3
СВ 3 20 км 3/0
[Ci sp]
-13.4 -16.1 80 -20 -20 по сезону 1020.7 991.8
СВ 3 20 км 10/0
[Ac und Ci sp]
-13.6 -17.1 75 -20 -20 по сезону 1017.7 988.9
СВ 3 20 км 10/10 600 м
[Sc]
-11.3 -14.8 75 -17 -17 по сезону 1014.4 985.8
СВ 2 20 км 10/10 600 м
[Sc]
-9.5 -13.0 76 -14 -14 по сезону 1011.2 983.0 -14.2 20
Ю 10-15
{15}
20 км слаб. дождь 10/10 300 м
[Frnb Ns]
+0.9 -2.1 80 -7 -7 тепло 1006.9 979.9
ЮЗ 10-13
{16}
20 км в посл. час дождь со снегом [диам. гололёда 3 мм] 10/10 600 м
[Sc]
+0.7 -0.1 94 -7 -7 тепло 1009.3 982.1
Ю 8-12
{13}
20 км 10/10 600 м
[Sc]
+0.9 -1.1 86 -6 -6 тепло 1010.6 983.5
Ю 13-17
{17}
20 км 10/10 600 м
[Sc]
+1.5 -2.6 74 -7 -7 тепло 1010.9 983.8 +1.8 5
Ю 16-19
{19}
500 м ливневой снег {метель} 10/10 100 м
[Cb cap]
-1.1 -2.0 94 -11 -11 по сезону 1011.5 984.1
Ю 13-16
{20}
500 м ливневой снег {метель} 10/10 100 м
[Cb cap]
-0.3 -1.2 94 -10 -10 тепло 1013.6 986.2
Местоположение метеостанции Рубцовск (Алтайский край, Россия): широта 51.58 долгота 81.20 высота над уровнем моря 219 м.
В архиве по умолчанию представлена погода в Рубцовске за последнюю неделю. Архивные данные за месяц целиком и за предыдущие месяцы, начиная с января 2011 года, Вы можете получить, выбрав интересующий диапазон дат из раскрывающегося списка и нажав кнопку "Найти!".
*Определитесь, кто Вы:
Внимание! Время в таблицах - всемирное. Для получения местного времени необходимо прибавить поправку, которая равна 7 ч.
Смотрите также архив погоды в соседних городах и на ближайших метеорологических станциях:
Партнеры нашего сайта:      
Пояснения к столбцам:
  • Ветер - указаны скорость ветра в м/с - средняя за 10 мин, порывы в срок и между сроками (в фигурных скобках) и направление, откуда дует ветер: С - северный,
  • СВ - северо-восточный, В - восточный, ЮВ - юго-восточный, Ю - южный, ЮЗ - юго-западный, З - западный, СЗ - северо-западный.
  • Видимость - горизонтальная дальность видимости в метрах или километрах. При видимости от 1 до 10 км при отсутствии осадков обычно наблюдается дымка, при ухудшении видимости до 1 км и менее - туман. В сухую погоду видимость может ухудшаться дымом, пылью или мглою.
  • Явления - указаны атмосферные явления, наблюдавшиеся в срок или в последний час перед сроком; фигурными скобками обозначены явления, наблюдавшиеся между сроками (за 1-3 часа до срока); квадратными скобками обозначены град или гололедные отложения с указанием их диаметра в мм.
  • Облачность - указаны через наклонную черту общая и нижняя облачность в баллах и высота нижней границы облаков в метрах; квадратными скобками обозначены формы облаков: Ci - перистые, Cs - перисто-слоистые, Cc - перисто-кучевые, Ac - высококучевые, As - высокослоистые, Sc - слоисто-кучевые, Ns - слоисто-дождевые, Cu - кучевые, Cb - кучево-дождевые. Подробнее классификацию облаков см. в Атласе облаков (PDF).
  • T - Температура воздуха - температура, измеренная на высоте 2 м над землей.
  • Td - Температура точки росы - температура, при понижении до которой содержащийся в воздухе водяной пар достигнет насыщения.
  • f - Относительная влажность воздуха - влажноcть воздуха, измеренная на высоте 2 м над землей.
  • Te - Эффективная температура - температура, которую ощущает одетый по сезону человек в тени. Характеристика душности погоды. При расчете учитывается влияние влажности воздуха и скорости ветра на теплоощущения человека.
  • Tes - Эффективная температура на солнце - температура, которую ощущает человек, с поправкой на солнечный нагрев. Характеристика знойности погоды. Зависит от высоты солнца над горизонтом, облачности и скорости ветра. Ночью, в пасмурную погоду, а также при ветре 12 м/с и более поправка равна нулю.
  • P - Атмосферное давление - приведенное к уровню моря атмосферное давление.
  • Po - Атмосферное давление - измеренное на уровне метеостанции атмосферное давление.
  • Tmin - Минимальная температура - минимум температуры воздуха на высоте 2 м над землей.
  • Tmax - Максимальная температура - максимум температуры воздуха на высоте 2 м над землей.
  • R - Количество осадков - Количество выпавших осадков за период времени, мм. При наведении курсора мыши на число - период времени, за который выпало указанное количество осадков.
  • R24 - Количество осадков - Количество выпавших осадков за 24 часа, мм.
  • S - Снежный покров - Высота снежного покрова, см. При наведении курсора мыши на число - состояние снежного покрова и степень покрытия местности в баллах.